AAL1318 KDCA-KCLT

Flight info

Callsign AAL1318
Flight time 1h 0m
Altitude 34000
Route SCRAM6 GLANC AIROW CHSLY6
Aircraft A20N/M-SDE2E3FGHIRWXY/LB1

Departure

Time 2026-04-25 23:35
Airport Ronald Reagan Washington National Airport (KDCA)

Arrival

Time 2026-04-26 00:35
Airport Charlotte Douglas International Airport (KCLT)
Time Latitude Longitude Altitude Speed Heading
2026-04-25 23:07 38.85570 -77.04172 25 ft 0 kts 325°
2026-04-25 23:27 38.85569 -77.04170 25 ft 1 kts 325°
2026-04-25 23:27 38.85562 -77.04165 25 ft 1 kts 325°
2026-04-25 23:27 38.85556 -77.04158 21 ft 3 kts 339°
2026-04-25 23:27 38.85536 -77.04164 29 ft 3 kts 37°
2026-04-25 23:28 38.85517 -77.04185 27 ft 4 kts 70°
2026-04-25 23:28 38.85516 -77.04189 26 ft 0 kts 75°
2026-04-25 23:30 38.85519 -77.04174 24 ft 5 kts 75°
2026-04-25 23:31 38.85533 -77.04113 27 ft 9 kts 72°
2026-04-25 23:31 38.85578 -77.04049 24 ft 11 kts 21°
2026-04-25 23:31 38.85658 -77.04042 26 ft 12 kts 11°
2026-04-25 23:31 38.85739 -77.03986 25 ft 15 kts 12°
2026-04-25 23:32 38.85854 -77.03991 25 ft 18 kts 355°
2026-04-25 23:32 38.85976 -77.03970 23 ft 4 kts 16°
2026-04-25 23:34 38.85977 -77.03969 23 ft 1 kts 16°
2026-04-25 23:34 38.86029 -77.03950 21 ft 14 kts 16°
2026-04-25 23:34 38.86036 -77.03867 20 ft 14 kts 158°
2026-04-25 23:34 38.85822 -77.03839 23 ft 64 kts 175°
2026-04-25 23:35 38.85141 -77.03769 20 ft 128 kts 176°
2026-04-25 23:35 38.84141 -77.03654 332 ft 149 kts 172°
2026-04-25 23:35 38.83093 -77.03589 940 ft 153 kts 174°
2026-04-25 23:35 38.82048 -77.03583 1736 ft 146 kts 175°
2026-04-25 23:36 38.80994 -77.03591 2271 ft 158 kts 177°
2026-04-25 23:36 38.79831 -77.03575 2712 ft 178 kts 178°
2026-04-25 23:36 38.78521 -77.03545 3180 ft 200 kts 179°
2026-04-25 23:36 38.77186 -77.03667 3582 ft 223 kts 195°
2026-04-25 23:37 38.75768 -77.04646 4077 ft 243 kts 224°
2026-04-25 23:37 38.74848 -77.06507 4808 ft 253 kts 254°
2026-04-25 23:37 38.74631 -77.08745 5849 ft 255 kts 266°
2026-04-25 23:37 38.74515 -77.11007 6934 ft 255 kts 264°
2026-04-25 23:38 38.74187 -77.13270 7842 ft 262 kts 254°
2026-04-25 23:38 38.73529 -77.15429 8806 ft 267 kts 245°
2026-04-25 23:38 38.72707 -77.17600 9744 ft 272 kts 246°
2026-04-25 23:38 38.71875 -77.19822 10488 ft 285 kts 246°
2026-04-25 23:39 38.70956 -77.22191 10858 ft 310 kts 242°
2026-04-25 23:39 38.69721 -77.24561 11320 ft 328 kts 236°
2026-04-25 23:39 38.68369 -77.26941 12150 ft 333 kts 237°
2026-04-25 23:39 38.67010 -77.29353 13064 ft 335 kts 237°
2026-04-25 23:40 38.65647 -77.31781 13928 ft 338 kts 237°
2026-04-25 23:40 38.64261 -77.34254 14673 ft 344 kts 237°
2026-04-25 23:40 38.62864 -77.36746 15456 ft 346 kts 237°
2026-04-25 23:40 38.61454 -77.39261 16206 ft 350 kts 236°
2026-04-25 23:41 38.60006 -77.41842 16956 ft 354 kts 236°
2026-04-25 23:41 38.58581 -77.44380 17673 ft 358 kts 236°
2026-04-25 23:41 38.57120 -77.46979 18406 ft 362 kts 236°
2026-04-25 23:41 38.55646 -77.49599 19076 ft 364 kts 236°
2026-04-25 23:42 38.54161 -77.52234 19734 ft 367 kts 236°
2026-04-25 23:42 38.52665 -77.54888 20405 ft 369 kts 236°
2026-04-25 23:42 38.51161 -77.57553 21070 ft 372 kts 235°
2026-04-25 23:42 38.49639 -77.60247 21729 ft 375 kts 235°
2026-04-25 23:43 38.48108 -77.62955 22372 ft 378 kts 235°
2026-04-25 23:43 38.46565 -77.65681 23026 ft 380 kts 235°
2026-04-25 23:43 38.44956 -77.68375 23629 ft 384 kts 231°
2026-04-25 23:43 38.43194 -77.70946 24170 ft 386 kts 230°
2026-04-25 23:44 38.41429 -77.73527 24703 ft 388 kts 230°
2026-04-25 23:44 38.39647 -77.76137 25225 ft 390 kts 230°
2026-04-25 23:44 38.37862 -77.78753 25735 ft 392 kts 230°
2026-04-25 23:44 38.36078 -77.81380 26206 ft 395 kts 231°
2026-04-25 23:45 38.34316 -77.84074 26706 ft 397 kts 232°
2026-04-25 23:45 38.32555 -77.86807 27167 ft 399 kts 232°
2026-04-25 23:45 38.30788 -77.89547 27630 ft 401 kts 232°
2026-04-25 23:45 38.29006 -77.92299 28055 ft 404 kts 232°
2026-04-25 23:46 38.27209 -77.95062 28483 ft 406 kts 232°
2026-04-25 23:46 38.25398 -77.97839 28889 ft 409 kts 232°
2026-04-25 23:46 38.23575 -78.00629 29290 ft 411 kts 232°
2026-04-25 23:46 38.21740 -78.03434 29681 ft 414 kts 232°
2026-04-25 23:47 38.19894 -78.06253 30072 ft 416 kts 232°
2026-04-25 23:47 38.18040 -78.09084 30424 ft 417 kts 232°
2026-04-25 23:47 38.16184 -78.11913 30799 ft 418 kts 232°
2026-04-25 23:47 38.14317 -78.14759 31219 ft 418 kts 231°
2026-04-25 23:48 38.12461 -78.17584 31702 ft 416 kts 231°
2026-04-25 23:48 38.10613 -78.20395 32227 ft 413 kts 231°
2026-04-25 23:48 38.08773 -78.23192 32733 ft 410 kts 231°
2026-04-25 23:48 38.06949 -78.25964 33229 ft 408 kts 231°
2026-04-25 23:49 38.05156 -78.28735 33708 ft 405 kts 232°
2026-04-25 23:49 38.03387 -78.31506 33898 ft 403 kts 232°
2026-04-25 23:49 38.01633 -78.34257 33922 ft 401 kts 232°
2026-04-25 23:50 37.98116 -78.39753 33924 ft 401 kts 232°
2026-04-25 23:50 37.94588 -78.45240 33920 ft 401 kts 232°
2026-04-25 23:51 37.91078 -78.50686 33920 ft 402 kts 232°
2026-04-25 23:51 37.87539 -78.56166 33919 ft 402 kts 232°
2026-04-25 23:52 37.83997 -78.61643 33914 ft 402 kts 231°
2026-04-25 23:52 37.80459 -78.67105 33907 ft 402 kts 231°
2026-04-25 23:53 37.76904 -78.72584 33907 ft 403 kts 231°
2026-04-25 23:53 37.73305 -78.77998 33909 ft 403 kts 228°
2026-04-25 23:54 37.69201 -78.82658 33899 ft 406 kts 219°
2026-04-25 23:54 37.64642 -78.86889 33895 ft 406 kts 219°
2026-04-25 23:55 37.60095 -78.91134 33902 ft 407 kts 219°
2026-04-25 23:55 37.55543 -78.95381 33903 ft 407 kts 219°
2026-04-25 23:56 37.50990 -78.99621 33915 ft 407 kts 219°
2026-04-25 23:56 37.46422 -79.03869 33913 ft 408 kts 219°
2026-04-25 23:57 37.41828 -79.08084 34075 ft 410 kts 218°
2026-04-25 23:57 37.39488 -79.10122 34464 ft 408 kts 218°
2026-04-25 23:57 37.37154 -79.12135 34854 ft 406 kts 218°
2026-04-25 23:57 37.34836 -79.14140 35209 ft 404 kts 218°
2026-04-25 23:58 37.32530 -79.16142 35539 ft 403 kts 218°
2026-04-25 23:58 37.30229 -79.18143 35827 ft 402 kts 218°
2026-04-25 23:58 37.27935 -79.20141 35908 ft 400 kts 218°
2026-04-25 23:59 37.23369 -79.24128 35912 ft 399 kts 219°
2026-04-25 23:59 37.18891 -79.28178 35909 ft 399 kts 220°
2026-04-26 00:00 37.14387 -79.32263 35904 ft 400 kts 219°
2026-04-26 00:00 37.09872 -79.36332 35902 ft 400 kts 219°
2026-04-26 00:01 37.05354 -79.40393 35895 ft 400 kts 219°
2026-04-26 00:01 37.00830 -79.44447 35889 ft 400 kts 219°
2026-04-26 00:02 36.96218 -79.48353 35894 ft 401 kts 217°
2026-04-26 00:02 36.91578 -79.52232 35891 ft 401 kts 218°
2026-04-26 00:03 36.86945 -79.56128 35883 ft 401 kts 218°
2026-04-26 00:03 36.82315 -79.60026 35888 ft 401 kts 218°
2026-04-26 00:04 36.77681 -79.63920 35892 ft 402 kts 218°
2026-04-26 00:04 36.73043 -79.67806 35898 ft 402 kts 218°
2026-04-26 00:05 36.68437 -79.71661 35414 ft 402 kts 217°
2026-04-26 00:05 36.66099 -79.73620 34542 ft 409 kts 217°
2026-04-26 00:05 36.63706 -79.75626 33323 ft 421 kts 216°
2026-04-26 00:05 36.61250 -79.77679 32165 ft 429 kts 216°
2026-04-26 00:06 36.58774 -79.79741 31446 ft 427 kts 216°
2026-04-26 00:06 36.56309 -79.81792 30602 ft 428 kts 216°
2026-04-26 00:06 36.53834 -79.83851 29938 ft 426 kts 217°
2026-04-26 00:06 36.51392 -79.85880 29469 ft 418 kts 217°
2026-04-26 00:07 36.48990 -79.87875 28905 ft 413 kts 217°
2026-04-26 00:07 36.46615 -79.89847 28352 ft 407 kts 217°
2026-04-26 00:07 36.44277 -79.91788 27806 ft 402 kts 217°
2026-04-26 00:07 36.41975 -79.93697 27440 ft 392 kts 217°
2026-04-26 00:08 36.40488 -79.94928 27344 ft 383 kts 217°
2026-04-26 00:08 36.38313 -79.96726 27207 ft 369 kts 217°
2026-04-26 00:08 36.36213 -79.98464 26955 ft 359 kts 217°
2026-04-26 00:08 36.34165 -80.00158 26682 ft 350 kts 217°
2026-04-26 00:09 36.32153 -80.01824 26474 ft 347 kts 217°
2026-04-26 00:09 36.30134 -80.03494 26302 ft 351 kts 217°
2026-04-26 00:09 36.28094 -80.05180 25996 ft 353 kts 217°
2026-04-26 00:09 36.26055 -80.06862 25655 ft 350 kts 216°
2026-04-26 00:10 36.24040 -80.08520 25315 ft 345 kts 216°
2026-04-26 00:10 36.22047 -80.10160 24999 ft 344 kts 216°
2026-04-26 00:10 36.20047 -80.11807 24669 ft 344 kts 216°
2026-04-26 00:10 36.18054 -80.13448 24332 ft 344 kts 216°
2026-04-26 00:11 36.16067 -80.15081 24008 ft 342 kts 216°
2026-04-26 00:11 36.14097 -80.16699 23688 ft 340 kts 216°
2026-04-26 00:11 36.12127 -80.18316 23343 ft 338 kts 216°
2026-04-26 00:11 36.10174 -80.19919 23009 ft 336 kts 216°
2026-04-26 00:12 36.08230 -80.21512 22688 ft 335 kts 216°
2026-04-26 00:12 36.06294 -80.23099 22367 ft 333 kts 216°
2026-04-26 00:12 36.04366 -80.24679 22050 ft 332 kts 216°
2026-04-26 00:12 36.02449 -80.26248 21753 ft 330 kts 216°
2026-04-26 00:13 36.00543 -80.27807 21432 ft 328 kts 216°
2026-04-26 00:13 35.98651 -80.29353 21121 ft 326 kts 216°
2026-04-26 00:13 35.96767 -80.30893 20813 ft 324 kts 216°
2026-04-26 00:13 35.94892 -80.32425 20506 ft 322 kts 216°
2026-04-26 00:14 35.93030 -80.33945 20196 ft 320 kts 216°
2026-04-26 00:14 35.91183 -80.35452 19890 ft 318 kts 216°
2026-04-26 00:14 35.89335 -80.36960 19592 ft 317 kts 215°
2026-04-26 00:14 35.87502 -80.38455 19293 ft 315 kts 215°
2026-04-26 00:15 35.85683 -80.39935 18993 ft 313 kts 215°
2026-04-26 00:15 35.83863 -80.41414 18697 ft 312 kts 215°
2026-04-26 00:15 35.82053 -80.42879 18396 ft 310 kts 215°
2026-04-26 00:15 35.80247 -80.44313 18086 ft 309 kts 214°
2026-04-26 00:16 35.78437 -80.45740 17782 ft 307 kts 214°
2026-04-26 00:16 35.76642 -80.47155 17550 ft 305 kts 214°
2026-04-26 00:16 35.74878 -80.48548 17298 ft 306 kts 214°
2026-04-26 00:16 35.73089 -80.49961 16998 ft 305 kts 214°
2026-04-26 00:17 35.71312 -80.51365 16711 ft 302 kts 214°
2026-04-26 00:17 35.69552 -80.52755 16418 ft 301 kts 214°
2026-04-26 00:17 35.67795 -80.54134 16135 ft 300 kts 213°
2026-04-26 00:17 35.66023 -80.55483 15850 ft 298 kts 213°
2026-04-26 00:18 35.64260 -80.56812 15562 ft 297 kts 213°
2026-04-26 00:18 35.62505 -80.58133 15279 ft 295 kts 213°
2026-04-26 00:18 35.60763 -80.59449 14998 ft 293 kts 213°
2026-04-26 00:18 35.59031 -80.60759 14719 ft 292 kts 213°
2026-04-26 00:19 35.57306 -80.62065 14440 ft 291 kts 213°
2026-04-26 00:19 35.55591 -80.63363 14162 ft 289 kts 213°
2026-04-26 00:19 35.53886 -80.64654 13888 ft 287 kts 213°
2026-04-26 00:19 35.52200 -80.65918 13619 ft 286 kts 212°
2026-04-26 00:20 35.50488 -80.67194 13338 ft 285 kts 212°
2026-04-26 00:20 35.48798 -80.68450 13064 ft 283 kts 212°
2026-04-26 00:20 35.47116 -80.69701 12798 ft 282 kts 212°
2026-04-26 00:20 35.45444 -80.70945 12531 ft 280 kts 212°
2026-04-26 00:21 35.43779 -80.72184 12260 ft 279 kts 212°
2026-04-26 00:21 35.42121 -80.73418 11996 ft 278 kts 212°
2026-04-26 00:21 35.40479 -80.74639 11766 ft 276 kts 212°
2026-04-26 00:21 35.38839 -80.75858 11581 ft 274 kts 212°
2026-04-26 00:22 35.37243 -80.77042 11499 ft 262 kts 212°
2026-04-26 00:22 35.35716 -80.78175 11418 ft 251 kts 212°
2026-04-26 00:22 35.34260 -80.79255 11318 ft 238 kts 212°
2026-04-26 00:22 35.32864 -80.80290 11100 ft 232 kts 212°
2026-04-26 00:23 35.31485 -80.81315 10771 ft 231 kts 212°
2026-04-26 00:23 35.30111 -80.82334 10449 ft 230 kts 212°
2026-04-26 00:23 35.28712 -80.83276 10102 ft 230 kts 202°
2026-04-26 00:23 35.27162 -80.83642 9972 ft 224 kts 183°
2026-04-26 00:24 35.25591 -80.83502 10012 ft 232 kts 179°
2026-04-26 00:24 35.23988 -80.83359 10011 ft 229 kts 180°
2026-04-26 00:24 35.22398 -80.83230 10011 ft 229 kts 180°
2026-04-26 00:24 35.20813 -80.83103 10011 ft 226 kts 180°
2026-04-26 00:25 35.19257 -80.82977 9959 ft 223 kts 180°
2026-04-26 00:25 35.17712 -80.82850 9691 ft 223 kts 180°
2026-04-26 00:25 35.16192 -80.82725 9401 ft 221 kts 180°
2026-04-26 00:25 35.14674 -80.82600 9075 ft 221 kts 180°
2026-04-26 00:26 35.13107 -80.82470 8746 ft 220 kts 180°
2026-04-26 00:26 35.11603 -80.82345 8381 ft 220 kts 180°
2026-04-26 00:26 35.10057 -80.82217 8014 ft 220 kts 180°
2026-04-26 00:26 35.08555 -80.82092 7665 ft 219 kts 180°
2026-04-26 00:27 35.07037 -80.81967 7321 ft 218 kts 180°
2026-04-26 00:27 35.05528 -80.81841 6981 ft 218 kts 180°
2026-04-26 00:27 35.04011 -80.81716 6639 ft 218 kts 180°
2026-04-26 00:27 35.02496 -80.81591 6308 ft 218 kts 180°
2026-04-26 00:28 35.00981 -80.81466 5952 ft 218 kts 179°
2026-04-26 00:28 34.99469 -80.81340 5600 ft 218 kts 179°
2026-04-26 00:28 34.97996 -80.81589 5251 ft 212 kts 208°
2026-04-26 00:28 34.96960 -80.82762 5056 ft 201 kts 243°
2026-04-26 00:29 34.96626 -80.84369 4921 ft 194 kts 262°
2026-04-26 00:29 34.96474 -80.85975 4764 ft 187 kts 264°
2026-04-26 00:29 34.96626 -80.87516 4605 ft 182 kts 281°
2026-04-26 00:29 34.97108 -80.88981 4463 ft 188 kts 296°
2026-04-26 00:30 34.97791 -80.90334 4335 ft 188 kts 307°
2026-04-26 00:30 34.98851 -80.91294 4257 ft 196 kts 335°
2026-04-26 00:30 35.00183 -80.91693 4176 ft 199 kts 350°
2026-04-26 00:30 35.01561 -80.91829 4084 ft 198 kts 354°
2026-04-26 00:31 35.02940 -80.91933 3977 ft 199 kts 352°
2026-04-26 00:31 35.04316 -80.92053 3777 ft 197 kts 353°
2026-04-26 00:31 35.05681 -80.92170 3538 ft 196 kts 352°
2026-04-26 00:31 35.07036 -80.92287 3300 ft 195 kts 353°
2026-04-26 00:32 35.08377 -80.92402 3093 ft 190 kts 352°
2026-04-26 00:32 35.09678 -80.92515 2807 ft 185 kts 353°
2026-04-26 00:32 35.12166 -80.92729 2337 ft 173 kts 353°
2026-04-26 00:33 35.13324 -80.92829 2112 ft 165 kts 354°
2026-04-26 00:33 35.14463 -80.92927 1903 ft 157 kts 354°
2026-04-26 00:33 35.15500 -80.93016 1703 ft 146 kts 354°
2026-04-26 00:33 35.16473 -80.93100 1490 ft 132 kts 354°
2026-04-26 00:34 35.17381 -80.93179 1326 ft 132 kts 355°
2026-04-26 00:34 35.18278 -80.93250 1139 ft 129 kts 355°
2026-04-26 00:34 35.19173 -80.93329 952 ft 129 kts 355°
2026-04-26 00:34 35.20067 -80.93412 812 ft 128 kts 355°
2026-04-26 00:35 35.20950 -80.93495 734 ft 119 kts 356°
2026-04-26 00:35 35.21576 -80.93548 735 ft 61 kts 356°
2026-04-26 00:35 35.21916 -80.93575 736 ft 21 kts 356°
2026-04-26 00:35 35.22025 -80.93599 734 ft 16 kts 333°
2026-04-26 00:36 35.22122 -80.93675 734 ft 17 kts 327°
2026-04-26 00:36 35.22184 -80.93780 732 ft 15 kts 260°
2026-04-26 00:36 35.22129 -80.93876 732 ft 13 kts 230°
2026-04-26 00:36 35.22112 -80.93901 731 ft 1 kts 229°
2026-04-26 00:37 35.22110 -80.93902 732 ft 0 kts 229°